| time (UTC) | temp C | wind direction | speed KPH | gust KPH | rain 1hr cm | rain 24hr cm | rain mn cm | humidity % | barometer mb |
| 20260510070103 | 9 | 286 | 1.6 | 8.0 | 0.00 | 0.97 | 0.00 | 86 | 1009.7 |
| 20260510064552 | 10 | 217 | 6.4 | 16.1 | 0.00 | 0.97 | 0.00 | 85 | 1010.3 |
| 20260510063051 | 10 | 194 | 3.2 | 16.1 | 0.00 | 0.97 | 0.00 | 85 | 1010.7 |
| 20260510061543 | 10 | 132 | 9.7 | 16.1 | 0.00 | 0.97 | 0.00 | 85 | 1010.6 |
| 20260510060049 | 10 | 213 | 9.7 | 25.7 | 0.00 | 0.97 | 0.00 | 85 | 1010.8 |
| 20260510054543 | 10 | 231 | 9.7 | 27.4 | 0.00 | 0.97 | 0.00 | 85 | 1010.6 |
| 20260510053050 | 10 | 192 | 6.4 | 17.7 | 0.00 | 0.97 | 0.00 | 86 | 1010.3 |
| 20260510051603 | 9 | 231 | 3.2 | 11.3 | 0.00 | 0.97 | 0.00 | 87 | 1010.2 |
| 20260510050105 | 9 | 190 | 4.8 | 17.7 | 0.00 | 0.97 | 0.00 | 87 | 1009.9 |
| 20260510044545 | 9 | 205 | 4.8 | 12.9 | 0.00 | 0.97 | 0.00 | 87 | 1009.8 |
| 20260510043048 | 9 | 274 | 3.2 | 12.9 | 0.00 | 0.97 | 0.00 | 88 | 1009.7 |
| 20260510041551 | 9 | 188 | 6.4 | 14.5 | 0.00 | 0.97 | 0.00 | 88 | 1009.7 |
| 20260510040046 | 9 | 188 | 6.4 | 17.7 | 0.00 | 0.97 | 0.00 | 87 | 1009.9 |
| 20260510034547 | 9 | 200 | 8.0 | 22.5 | 0.00 | 0.97 | 0.97 | 88 | 1009.7 |
| 20260510033053 | 8 | 200 | 6.4 | 12.9 | 0.00 | 0.97 | 0.97 | 89 | 1009.5 |
| 20260510031549 | 8 | 212 | 3.2 | 11.3 | 0.00 | 0.97 | 0.97 | 89 | 1009.6 |
| 20260510030047 | 8 | 0 | 0.0 | 6.4 | 0.00 | 0.97 | 0.97 | 89 | 1009.7 |
| 20260510024549 | 8 | 206 | 0.0 | 6.4 | 0.00 | 0.97 | 0.97 | 88 | 1009.6 |
| 20260510023044 | 8 | 180 | 0.0 | 9.7 | 0.00 | 0.97 | 0.97 | 88 | 1009.4 |
| 20260510021637 | 8 | 0 | 1.6 | 9.7 | 0.00 | 0.97 | 0.97 | 87 | 1009.7 |
| 20260510020050 | 9 | 277 | 1.6 | 12.9 | 0.00 | 0.97 | 0.97 | 86 | 1009.5 |
| 20260510014556 | 9 | 0 | 0.0 | 4.8 | 0.00 | 0.97 | 0.97 | 86 | 1009.6 |
| 20260510013057 | 10 | 181 | 1.6 | 12.9 | 0.00 | 0.97 | 0.97 | 84 | 1009.2 |
| 20260510011547 | 10 | 169 | 4.8 | 14.5 | 0.00 | 0.97 | 0.97 | 84 | 1009.3 |
| 20260510010056 | 10 | 167 | 6.4 | 12.9 | 0.00 | 0.97 | 0.97 | 84 | 1009.4 |
| 20260510004549 | 10 | 207 | 3.2 | 14.5 | 0.00 | 0.97 | 0.97 | 84 | 1009.1 |
| 20260510003050 | 10 | 298 | 3.2 | 14.5 | 0.00 | 0.97 | 0.97 | 84 | 1009.1 |
| 20260510001548 | 10 | 221 | 4.8 | 12.9 | 0.00 | 0.97 | 0.97 | 83 | 1008.9 |
| 20260510000048 | 10 | 229 | 6.4 | 16.1 | 0.00 | 0.97 | 0.97 | 82 | 1008.8 |
| 20260509234549 | 10 | 275 | 6.4 | 20.9 | 0.00 | 0.97 | 0.97 | 82 | 1008.6 |
| 20260509233050 | 10 | 247 | 8.0 | 17.7 | 0.00 | 0.97 | 0.97 | 82 | 1008.5 |
| 20260509231548 | 10 | 222 | 8.0 | 22.5 | 0.00 | 0.97 | 0.97 | 81 | 1008.4 |
| 20260509230054 | 10 | 202 | 6.4 | 19.3 | 0.00 | 0.97 | 0.97 | 81 | 1008.2 |
| 20260509224549 | 10 | 279 | 6.4 | 20.9 | 0.00 | 0.97 | 0.97 | 81 | 1008.2 |
| 20260509223052 | 10 | 210 | 9.7 | 27.4 | 0.00 | 0.97 | 0.97 | 82 | 1008.3 |
| 20260509221543 | 10 | 224 | 8.0 | 22.5 | 0.00 | 0.97 | 0.97 | 83 | 1008.3 |
| 20260509220049 | 10 | 251 | 8.0 | 29.0 | 0.00 | 0.97 | 0.97 | 82 | 1008.4 |
| 20260509214546 | 10 | 198 | 9.7 | 29.0 | 0.00 | 0.97 | 0.97 | 83 | 1008.6 |
| 20260509213105 | 10 | 205 | 11.3 | 27.4 | 0.00 | 0.97 | 0.97 | 82 | 1008.6 |
| 20260509211546 | 10 | 246 | 9.7 | 25.7 | 0.00 | 0.97 | 0.97 | 81 | 1008.6 |
| 20260509210050 | 10 | 242 | 12.9 | 25.7 | 0.00 | 0.97 | 0.97 | 82 | 1008.6 |
| 20260509204550 | 10 | 185 | 9.7 | 24.1 | 0.00 | 0.97 | 0.97 | 84 | 1008.6 |
| 20260509203048 | 10 | 207 | 6.4 | 24.1 | 0.00 | 0.97 | 0.97 | 85 | 1008.7 |
| 20260509201548 | 10 | 314 | 11.3 | 24.1 | 0.00 | 0.97 | 0.97 | 84 | 1009.0 |
| 20260509200052 | 9 | 240 | 9.7 | 24.1 | 0.03 | 0.97 | 0.97 | 85 | 1009.0 |
| 20260509194554 | 9 | 226 | 14.5 | 29.0 | 0.03 | 0.97 | 0.97 | 85 | 1009.2 |
| 20260509193051 | 9 | 202 | 6.4 | 17.7 | 0.03 | 0.97 | 0.97 | 86 | 1009.3 |
| 20260509191603 | 9 | 178 | 8.0 | 17.7 | 0.03 | 0.97 | 0.97 | 86 | 1009.4 |
| 20260509190050 | 9 | 194 | 6.4 | 19.3 | 0.03 | 0.94 | 0.94 | 87 | 1009.5 |
| 20260509184557 | 9 | 250 | 4.8 | 19.3 | 0.03 | 0.94 | 0.94 | 87 | 1009.6 |
| 20260509183055 | 9 | 196 | 3.2 | 16.1 | 0.03 | 0.94 | 0.94 | 87 | 1009.7 |
| 20260509181555 | 9 | 167 | 4.8 | 16.1 | 0.03 | 0.94 | 0.94 | 85 | 1009.6 |
| 20260509180115 | 9 | 152 | 6.4 | 16.1 | 0.00 | 0.91 | 0.91 | 85 | 1009.6 |
| 20260509174549 | 9 | 191 | 0.0 | 8.0 | 0.03 | 0.91 | 0.91 | 86 | 1009.4 |
| 20260509173104 | 9 | 180 | 6.4 | 19.3 | 0.05 | 0.91 | 0.91 | 87 | 1009.5 |
| 20260509171550 | 8 | 194 | 4.8 | 11.3 | 0.08 | 0.91 | 0.91 | 87 | 1009.7 |
| 20260509170050 | 8 | 0 | 4.8 | 16.1 | 0.08 | 0.91 | 0.91 | 88 | 1009.8 |
| 20260509164554 | 8 | 190 | 8.0 | 17.7 | 0.08 | 0.94 | 0.89 | 89 | 1010.1 |
| 20260509163055 | 8 | 196 | 4.8 | 11.3 | 0.08 | 0.91 | 0.86 | 90 | 1010.3 |
| 20260509161558 | 8 | 196 | 3.2 | 8.0 | 0.08 | 0.89 | 0.84 | 91 | 1010.4 |
| 20260509154600 | 7 | 0 | 0.0 | 4.8 | 0.10 | 0.91 | 0.81 | 94 | 1010.7 |
| 20260509153100 | 7 | 42 | 1.6 | 4.8 | 0.13 | 0.89 | 0.79 | 94 | 1011.0 |
| 20260509151549 | 7 | 56 | 0.0 | 6.4 | 0.15 | 0.86 | 0.76 | 94 | 1011.1 |
| 20260509150044 | 6 | 0 | 0.0 | 4.8 | 0.15 | 0.84 | 0.74 | 94 | 1011.2 |
| 20260509144549 | 6 | 0 | 0.0 | 4.8 | 0.15 | 0.81 | 0.71 | 94 | 1011.3 |
| 20260509143047 | 6 | 0 | 0.0 | 3.2 | 0.15 | 0.76 | 0.66 | 94 | 1011.5 |
| 20260509141544 | 6 | 0 | 0.0 | 4.8 | 0.15 | 0.71 | 0.61 | 94 | 1011.4 |
| 20260509140103 | 6 | 145 | 0.0 | 1.6 | 0.15 | 0.69 | 0.58 | 93 | 1011.3 |
| 20260509134545 | 6 | 0 | 0.0 | 0.0 | 0.15 | 0.66 | 0.56 | 94 | 1011.3 |
| 20260509133045 | 5 | 0 | 0.0 | 1.6 | 0.10 | 0.61 | 0.51 | 93 | 1011.5 |
| 20260509131550 | 5 | 0 | 0.0 | 0.0 | 0.05 | 0.56 | 0.46 | 94 | 1011.5 |
| 20260509130049 | 5 | 0 | 0.0 | 1.6 | 0.05 | 0.53 | 0.43 | 93 | 1011.5 |
| 20260509124555 | 4 | 150 | 0.0 | 4.8 | 0.05 | 0.51 | 0.41 | 93 | 1011.5 |
| 20260509123050 | 4 | 0 | 0.0 | 0.0 | 0.08 | 0.51 | 0.41 | 93 | 1011.5 |
| 20260509121550 | 3 | 0 | 0.0 | 0.0 | 0.10 | 0.51 | 0.41 | 93 | 1011.6 |
| 20260509120053 | 3 | 0 | 0.0 | 0.0 | 0.08 | 0.48 | 0.38 | 93 | 1011.6 |
| 20260509114548 | 3 | 0 | 0.0 | 0.0 | 0.05 | 0.46 | 0.36 | 93 | 1011.7 |
| 20260509113048 | 3 | 0 | 0.0 | 0.0 | 0.03 | 0.43 | 0.33 | 93 | 1011.6 |
| 20260509111558 | 3 | 0 | 0.0 | 1.6 | 0.03 | 0.41 | 0.30 | 93 | 1011.6 |
| 20260509110053 | 3 | 0 | 0.0 | 3.2 | 0.03 | 0.41 | 0.30 | 93 | 1011.7 |
| 20260509104546 | 3 | 0 | 0.0 | 0.0 | 0.03 | 0.41 | 0.30 | 92 | 1011.5 |
| 20260509103105 | 2 | 0 | 0.0 | 0.0 | 0.03 | 0.41 | 0.30 | 92 | 1011.5 |
| 20260509101557 | 2 | 0 | 0.0 | 0.0 | 0.00 | 0.38 | 0.28 | 92 | 1011.6 |
| 20260509100055 | 2 | 0 | 0.0 | 0.0 | 0.00 | 0.38 | 0.28 | 92 | 1011.5 |
| 20260509094555 | 2 | 0 | 0.0 | 0.0 | 0.03 | 0.38 | 0.28 | 92 | 1011.6 |
| 20260509093053 | 2 | 0 | 0.0 | 0.0 | 0.05 | 0.38 | 0.28 | 91 | 1011.7 |
| 20260509091555 | 2 | 0 | 0.0 | 0.0 | 0.13 | 0.38 | 0.28 | 91 | 1011.8 |
| 20260509090116 | 2 | 0 | 0.0 | 4.8 | 0.18 | 0.38 | 0.28 | 91 | 1011.9 |
| 20260509084558 | 2 | 0 | 0.0 | 1.6 | 0.20 | 0.36 | 0.25 | 91 | 1012.0 |
| 20260509083105 | 2 | 0 | 0.0 | 1.6 | 0.23 | 0.33 | 0.23 | 90 | 1012.1 |
| 20260509081552 | 2 | 0 | 0.0 | 0.0 | 0.15 | 0.25 | 0.15 | 89 | 1012.3 |
| 20260509080050 | 2 | 0 | 0.0 | 0.0 | 0.10 | 0.20 | 0.10 | 88 | 1012.3 |
| 20260509074607 | 2 | 0 | 0.0 | 0.0 | 0.03 | 0.13 | 0.03 | 85 | 1012.1 |
| 20260509073103 | 2 | 0 | 0.0 | 0.0 | 0.00 | 0.10 | 0.00 | 80 | 1012.0 |
| 20260509071558 | 2 | 0 | 0.0 | 1.6 | 0.00 | 0.10 | 0.00 | 84 | 1011.9 |